Time,TemperatureF,DewpointF,PressureIn,WindDirection,WindDirectionDegrees,WindSpeedMPH,WindSpeedGustMPH,Humidity,HourlyPrecipIn,Conditions,Clouds,dailyrainin,SoftwareType,DateUTC
2013-09-18 00:01:00,46.4,32.0,30.35,NNW,338,0.0,0.0,57,0.00,,,0.00,WUHU216HW,2013-09-18 04:01:00,
2013-09-18 00:02:00,46.4,32.0,30.35,NNW,338,0.4,0.4,57,0.00,,,0.00,WUHU216HW,2013-09-18 04:02:00,
2013-09-18 00:07:00,46.4,32.0,30.35,NNW,338,0.4,0.4,57,0.00,,,0.00,WUHU216HW,2013-09-18 04:07:00,
2013-09-18 00:12:00,46.3,31.9,30.35,NW,315,0.0,0.4,57,0.00,,,0.00,WUHU216HW,2013-09-18 04:12:00,
2013-09-18 00:17:00,46.1,31.3,30.35,NW,315,0.0,0.4,56,0.00,,,0.00,WUHU216HW,2013-09-18 04:17:00,
2013-09-18 00:22:00,46.1,31.3,30.35,NNW,338,0.0,0.0,56,0.00,,,0.00,WUHU216HW,2013-09-18 04:22:00,
2013-09-18 00:27:00,46.1,31.3,30.35,NW,315,0.0,0.4,56,0.00,,,0.00,WUHU216HW,2013-09-18 04:27:00,
2013-09-18 00:32:00,45.9,31.1,30.35,NW,315,0.0,0.4,56,0.00,,,0.00,WUHU216HW,2013-09-18 04:32:00,
2013-09-18 00:37:00,45.9,31.1,30.35,NNW,338,0.0,0.2,56,0.00,,,0.00,WUHU216HW,2013-09-18 04:37:00,
2013-09-18 00:42:00,45.7,31.0,30.35,NNW,338,0.0,0.2,56,0.00,,,0.00,WUHU216HW,2013-09-18 04:42:00,
2013-09-18 00:47:00,45.7,31.0,30.35,NNW,338,0.4,0.7,56,0.00,,,0.00,WUHU216HW,2013-09-18 04:47:00,
2013-09-18 00:52:00,45.7,31.0,30.35,NW,315,0.2,0.7,56,0.00,,,0.00,WUHU216HW,2013-09-18 04:52:00,
2013-09-18 00:57:00,45.5,30.8,30.34,NNW,338,0.0,0.2,56,0.00,,,0.00,WUHU216HW,2013-09-18 04:57:00,
2013-09-18 01:02:00,45.5,30.8,30.34,NNW,338,0.0,0.2,56,0.00,,,0.00,WUHU216HW,2013-09-18 05:02:00,
2013-09-18 01:07:00,45.4,30.7,30.34,NNW,338,0.0,0.0,56,0.00,,,0.00,WUHU216HW,2013-09-18 05:07:00,
2013-09-18 01:12:00,45.2,30.5,30.34,NNW,338,0.0,0.0,56,0.00,,,0.00,WUHU216HW,2013-09-18 05:12:00,
2013-09-18 01:17:00,45.2,30.5,30.34,NNW,338,0.0,0.0,56,0.00,,,0.00,WUHU216HW,2013-09-18 05:17:00,
2013-09-18 01:22:00,45.0,30.3,30.34,NNW,338,0.0,0.0,56,0.00,,,0.00,WUHU216HW,2013-09-18 05:22:00,
2013-09-18 01:27:00,45.0,30.3,30.34,NNW,338,0.0,0.0,56,0.00,,,0.00,WUHU216HW,2013-09-18 05:27:00,
2013-09-18 01:31:00,44.8,29.7,30.34,NNW,338,0.0,0.0,55,0.00,,,0.00,WUHU216HW,2013-09-18 05:31:00,
2013-09-18 01:36:00,44.6,29.9,30.34,NNW,338,0.0,0.0,56,0.00,,,0.00,WUHU216HW,2013-09-18 05:36:00,
2013-09-18 01:41:00,44.6,29.9,30.34,NNW,338,0.0,0.0,56,0.00,,,0.00,WUHU216HW,2013-09-18 05:41:00,
2013-09-18 01:46:00,44.5,29.4,30.34,NNW,338,0.0,0.0,55,0.00,,,0.00,WUHU216HW,2013-09-18 05:46:00,
2013-09-18 01:51:00,44.5,29.8,30.34,WNW,293,0.4,0.4,56,0.00,,,0.00,WUHU216HW,2013-09-18 05:51:00,
2013-09-18 01:56:00,44.3,29.2,30.33,NW,315,0.0,0.4,55,0.00,,,0.00,WUHU216HW,2013-09-18 05:56:00,
2013-09-18 02:01:00,44.3,29.2,30.33,NW,315,0.0,0.0,55,0.00,,,0.00,WUHU216HW,2013-09-18 06:01:00,
2013-09-18 02:06:00,44.1,29.0,30.33,NW,315,0.0,0.0,55,0.00,,,0.00,WUHU216HW,2013-09-18 06:06:00,
2013-09-18 02:11:00,44.1,29.0,30.33,NW,315,0.0,0.0,55,0.00,,,0.00,WUHU216HW,2013-09-18 06:11:00,
2013-09-18 02:16:00,43.9,28.8,30.33,NW,315,0.0,0.0,55,0.00,,,0.00,WUHU216HW,2013-09-18 06:16:00,
2013-09-18 02:21:00,43.9,28.8,30.33,NW,315,0.0,0.0,55,0.00,,,0.00,WUHU216HW,2013-09-18 06:21:00,
2013-09-18 02:26:00,43.7,28.7,30.33,NW,315,0.0,0.0,55,0.00,,,0.00,WUHU216HW,2013-09-18 06:26:00,
2013-09-18 02:31:00,43.6,28.6,30.33,NW,315,0.0,0.0,55,0.00,,,0.00,WUHU216HW,2013-09-18 06:31:00,
2013-09-18 02:36:00,43.6,28.6,30.33,NNW,338,0.0,0.0,55,0.00,,,0.00,WUHU216HW,2013-09-18 06:36:00,
2013-09-18 02:41:00,43.6,28.6,30.33,NNW,338,0.0,0.0,55,0.00,,,0.00,WUHU216HW,2013-09-18 06:41:00,
2013-09-18 02:46:00,43.6,28.6,30.33,NNW,338,0.0,0.0,55,0.00,,,0.00,WUHU216HW,2013-09-18 06:46:00,
2013-09-18 02:51:00,43.4,28.4,30.33,NNW,338,0.0,0.0,55,0.00,,,0.00,WUHU216HW,2013-09-18 06:51:00,
2013-09-18 02:56:00,43.2,28.2,30.33,NW,315,0.0,0.0,55,0.00,,,0.00,WUHU216HW,2013-09-18 06:56:00,
2013-09-18 03:01:00,43.2,28.2,30.32,NW,315,0.4,0.4,55,0.00,,,0.00,WUHU216HW,2013-09-18 07:01:00,
2013-09-18 03:06:00,43.2,28.2,30.32,NW,315,0.0,0.4,55,0.00,,,0.00,WUHU216HW,2013-09-18 07:06:00,
2013-09-18 03:11:00,43.0,28.0,30.32,NW,315,0.0,0.0,55,0.00,,,0.00,WUHU216HW,2013-09-18 07:11:00,
2013-09-18 03:16:00,43.0,28.0,30.32,NW,315,0.0,0.0,55,0.00,,,0.00,WUHU216HW,2013-09-18 07:16:00,
2013-09-18 03:21:00,42.8,27.8,30.32,NW,315,0.0,0.0,55,0.00,,,0.00,WUHU216HW,2013-09-18 07:21:00,
2013-09-18 03:26:00,42.8,27.8,30.32,NW,315,0.0,0.0,55,0.00,,,0.00,WUHU216HW,2013-09-18 07:26:00,
2013-09-18 03:31:00,42.7,27.7,30.32,NW,315,0.0,0.0,55,0.00,,,0.00,WUHU216HW,2013-09-18 07:31:00,
2013-09-18 03:36:00,42.5,27.1,30.32,NW,315,0.0,0.0,54,0.00,,,0.00,WUHU216HW,2013-09-18 07:36:00,
2013-09-18 03:41:00,42.5,27.1,30.32,NW,315,0.0,0.0,54,0.00,,,0.00,WUHU216HW,2013-09-18 07:41:00,
2013-09-18 03:46:00,42.5,27.1,30.32,NW,315,0.4,0.4,54,0.00,,,0.00,WUHU216HW,2013-09-18 07:46:00,
2013-09-18 03:51:00,42.3,26.9,30.32,NW,315,0.0,0.4,54,0.00,,,0.00,WUHU216HW,2013-09-18 07:51:00,
2013-09-18 03:56:00,42.3,26.9,30.32,NW,315,0.0,0.0,54,0.00,,,0.00,WUHU216HW,2013-09-18 07:56:00,
2013-09-18 04:01:00,42.1,26.7,30.32,NW,315,0.0,0.0,54,0.00,,,0.00,WUHU216HW,2013-09-18 08:01:00,
2013-09-18 04:06:00,42.1,26.7,30.32,NW,315,0.0,0.0,54,0.00,,,0.00,WUHU216HW,2013-09-18 08:06:00,
2013-09-18 04:11:00,42.1,26.7,30.31,NW,315,0.0,0.0,54,0.00,,,0.00,WUHU216HW,2013-09-18 08:11:00,
2013-09-18 04:16:00,42.1,26.7,30.31,NW,315,0.0,0.0,54,0.00,,,0.00,WUHU216HW,2013-09-18 08:16:00,
2013-09-18 04:21:00,42.1,26.7,30.31,NW,315,0.0,0.0,54,0.00,,,0.00,WUHU216HW,2013-09-18 08:21:00,
2013-09-18 04:26:00,41.9,26.5,30.31,NW,315,0.0,0.0,54,0.00,,,0.00,WUHU216HW,2013-09-18 08:26:00,
2013-09-18 04:31:00,41.9,26.5,30.31,NW,315,0.0,0.0,54,0.00,,,0.00,WUHU216HW,2013-09-18 08:31:00,
2013-09-18 04:36:00,41.8,26.4,30.31,NW,315,0.0,0.0,54,0.00,,,0.00,WUHU216HW,2013-09-18 08:36:00,
2013-09-18 04:41:00,41.8,26.4,30.31,NW,315,0.0,0.0,54,0.00,,,0.00,WUHU216HW,2013-09-18 08:41:00,
2013-09-18 04:46:00,41.6,26.3,30.31,NW,315,0.0,0.0,54,0.00,,,0.00,WUHU216HW,2013-09-18 08:46:00,
2013-09-18 04:51:00,41.6,26.3,30.31,NW,315,0.0,0.0,54,0.00,,,0.00,WUHU216HW,2013-09-18 08:51:00,
2013-09-18 04:56:00,41.4,26.1,30.31,NW,315,0.0,0.0,54,0.00,,,0.00,WUHU216HW,2013-09-18 08:56:00,
2013-09-18 05:01:00,41.4,26.1,30.31,NW,315,0.0,0.0,54,0.00,,,0.00,WUHU216HW,2013-09-18 09:01:00,
2013-09-18 05:06:00,41.4,26.1,30.31,NW,315,0.0,0.0,54,0.00,,,0.00,WUHU216HW,2013-09-18 09:06:00,
2013-09-18 05:11:00,41.2,25.9,30.31,NW,315,0.0,0.0,54,0.00,,,0.00,WUHU216HW,2013-09-18 09:11:00,
2013-09-18 05:16:00,41.0,25.7,30.31,NW,315,0.0,0.0,54,0.00,,,0.00,WUHU216HW,2013-09-18 09:16:00,
2013-09-18 05:21:00,41.0,25.7,30.32,NW,315,0.0,0.0,54,0.00,,,0.00,WUHU216HW,2013-09-18 09:21:00,
2013-09-18 05:26:00,41.0,25.7,30.31,NW,315,0.0,0.0,54,0.00,,,0.00,WUHU216HW,2013-09-18 09:26:00,
2013-09-18 05:31:00,41.0,25.7,30.31,NW,315,0.0,0.0,54,0.00,,,0.00,WUHU216HW,2013-09-18 09:31:00,
2013-09-18 05:36:00,40.9,25.6,30.31,NW,315,0.0,0.0,54,0.00,,,0.00,WUHU216HW,2013-09-18 09:36:00,
2013-09-18 05:41:00,40.9,25.6,30.31,NW,315,0.0,0.0,54,0.00,,,0.00,WUHU216HW,2013-09-18 09:41:00,
2013-09-18 05:46:00,40.7,25.4,30.31,NW,315,0.0,0.0,54,0.00,,,0.00,WUHU216HW,2013-09-18 09:46:00,
2013-09-18 05:51:00,40.7,25.4,30.31,NW,315,0.0,0.0,54,0.00,,,0.00,WUHU216HW,2013-09-18 09:51:00,
2013-09-18 05:56:00,40.7,25.4,30.31,NW,315,0.0,0.0,54,0.00,,,0.00,WUHU216HW,2013-09-18 09:56:00,
2013-09-18 06:01:00,40.7,25.4,30.31,NW,315,0.0,0.0,54,0.00,,,0.00,WUHU216HW,2013-09-18 10:01:00,
2013-09-18 06:06:00,40.7,25.4,30.32,NW,315,0.0,0.0,54,0.00,,,0.00,WUHU216HW,2013-09-18 10:06:00,
2013-09-18 06:11:00,40.5,25.2,30.32,NW,315,0.0,0.0,54,0.00,,,0.00,WUHU216HW,2013-09-18 10:11:00,
2013-09-18 06:16:00,40.5,25.2,30.32,NW,315,0.0,0.0,54,0.00,,,0.00,WUHU216HW,2013-09-18 10:16:00,
2013-09-18 06:21:00,40.5,25.2,30.32,NW,315,0.4,0.4,54,0.00,,,0.00,WUHU216HW,2013-09-18 10:21:00,
2013-09-18 06:26:00,40.3,25.0,30.33,NW,315,0.0,0.4,54,0.00,,,0.00,WUHU216HW,2013-09-18 10:26:00,
2013-09-18 06:31:00,40.3,25.0,30.33,NW,315,0.0,0.0,54,0.00,,,0.00,WUHU216HW,2013-09-18 10:31:00,
2013-09-18 06:36:00,40.1,24.9,30.33,NW,315,0.0,0.0,54,0.00,,,0.00,WUHU216HW,2013-09-18 10:36:00,
2013-09-18 06:41:00,40.1,24.9,30.33,NW,315,0.0,0.0,54,0.00,,,0.00,WUHU216HW,2013-09-18 10:41:00,
2013-09-18 06:46:00,40.1,24.9,30.33,NW,315,0.0,0.0,54,0.00,,,0.00,WUHU216HW,2013-09-18 10:46:00,
2013-09-18 06:51:00,40.0,24.3,30.33,NW,315,0.0,0.0,53,0.00,,,0.00,WUHU216HW,2013-09-18 10:51:00,
2013-09-18 06:56:00,40.0,24.3,30.33,NW,315,0.0,0.0,53,0.00,,,0.00,WUHU216HW,2013-09-18 10:56:00,
2013-09-18 07:01:00,40.0,24.3,30.33,NW,315,0.4,0.4,53,0.00,,,0.00,WUHU216HW,2013-09-18 11:01:00,
2013-09-18 07:06:00,40.0,24.3,30.33,NW,315,0.0,0.4,53,0.00,,,0.00,WUHU216HW,2013-09-18 11:06:00,
2013-09-18 07:11:00,40.0,23.9,30.33,NW,315,0.0,0.0,52,0.00,,,0.00,WUHU216HW,2013-09-18 11:11:00,
2013-09-18 07:16:00,40.0,23.9,30.33,NW,315,0.0,0.0,52,0.00,,,0.00,WUHU216HW,2013-09-18 11:16:00,
2013-09-18 07:21:00,40.0,23.4,30.33,NW,315,0.0,0.0,51,0.00,,,0.00,WUHU216HW,2013-09-18 11:21:00,
2013-09-18 07:26:00,40.0,23.4,30.33,NW,315,0.0,0.0,51,0.00,,,0.00,WUHU216HW,2013-09-18 11:26:00,
2013-09-18 07:31:00,40.0,23.0,30.33,NW,315,0.0,0.0,50,0.00,,,0.00,WUHU216HW,2013-09-18 11:31:00,
2013-09-18 07:36:00,40.1,22.6,30.33,NW,315,0.0,0.0,49,0.00,,,0.00,WUHU216HW,2013-09-18 11:36:00,
2013-09-18 07:41:00,40.3,22.8,30.33,NW,315,0.2,0.2,49,0.00,,,0.00,WUHU216HW,2013-09-18 11:41:00,
2013-09-18 07:46:00,40.3,22.3,30.33,NNW,338,0.0,0.2,49,0.00,,,0.00,WUHU216HW,2013-09-18 11:46:00,
2013-09-18 07:51:00,40.5,22.0,30.33,North,0,0.6,0.9,48,0.00,,,0.00,WUHU216HW,2013-09-18 11:51:00,
2013-09-18 07:56:00,40.7,22.2,30.33,North,0,0.0,0.9,48,0.00,,,0.00,WUHU216HW,2013-09-18 11:56:00,
2013-09-18 08:01:00,40.7,21.7,30.33,North,0,0.0,0.0,47,0.00,,,0.00,WUHU216HW,2013-09-18 12:01:00,
2013-09-18 08:06:00,41.0,22.0,30.33,NNW,338,0.2,0.7,47,0.00,,,0.00,WUHU216HW,2013-09-18 12:06:00,
2013-09-18 08:11:00,41.0,21.5,30.33,NNW,338,0.0,0.7,46,0.00,,,0.00,WUHU216HW,2013-09-18 12:11:00,
2013-09-18 08:16:00,41.4,21.3,30.33,NNW,338,0.0,0.4,45,0.00,,,0.00,WUHU216HW,2013-09-18 12:16:00,
2013-09-18 08:21:00,41.4,20.8,30.33,NNW,330,0.3,0.9,44,0.00,,,0.00,WUHU216HW,2013-09-18 12:21:00,
2013-09-18 08:26:00,41.8,19.5,30.33,WSW,253,1.4,2.0,41,0.00,,,0.00,WUHU216HW,2013-09-18 12:26:00,
2013-09-18 08:31:00,42.3,20.0,30.32,NW,315,1.6,2.0,41,0.00,,,0.00,WUHU216HW,2013-09-18 12:31:00,
2013-09-18 08:36:00,42.8,19.3,30.32,NW,315,0.0,1.6,39,0.00,,,0.00,WUHU216HW,2013-09-18 12:36:00,
2013-09-18 08:41:00,43.4,19.3,30.32,NW,315,0.0,0.9,38,0.00,,,0.00,WUHU216HW,2013-09-18 12:41:00,
2013-09-18 08:46:00,43.6,18.8,30.32,WSW,248,2.2,2.2,37,0.00,,,0.00,WUHU216HW,2013-09-18 12:46:00,
2013-09-18 08:51:00,44.3,18.8,30.32,WSW,248,1.1,2.2,36,0.00,,,0.00,WUHU216HW,2013-09-18 12:51:00,
2013-09-18 08:56:00,44.6,19.7,30.32,WNW,293,0.0,1.3,37,0.00,,,0.00,WUHU216HW,2013-09-18 12:56:00,
2013-09-18 09:01:00,45.0,20.1,30.32,WSW,248,0.9,0.9,37,0.00,,,0.00,WUHU216HW,2013-09-18 13:01:00,
2013-09-18 09:06:00,45.4,19.2,30.32,West,270,1.8,1.8,35,0.00,,,0.00,WUHU216HW,2013-09-18 13:06:00,
2013-09-18 09:11:00,46.3,19.3,30.32,NNW,338,1.6,1.8,34,0.00,,,0.00,WUHU216HW,2013-09-18 13:11:00,
2013-09-18 09:16:00,46.8,20.4,30.32,WSW,248,1.8,2.0,35,0.00,,,0.00,WUHU216HW,2013-09-18 13:16:00,
2013-09-18 09:21:00,47.3,21.5,30.32,WSW,248,3.4,3.4,36,0.00,,,0.00,WUHU216HW,2013-09-18 13:21:00,
2013-09-18 09:26:00,48.2,22.3,30.32,WNW,293,2.9,4.3,36,0.00,,,0.00,WUHU216HW,2013-09-18 13:26:00,
2013-09-18 09:31:00,48.8,24.1,30.32,WSW,248,5.4,5.4,38,0.00,,,0.00,WUHU216HW,2013-09-18 13:31:00,
2013-09-18 09:36:00,49.7,26.1,30.32,West,270,2.0,5.4,40,0.00,,,0.00,WUHU216HW,2013-09-18 13:36:00,
2013-09-18 09:41:00,50.2,26.5,30.32,SW,225,1.1,4.0,40,0.00,,,0.00,WUHU216HW,2013-09-18 13:41:00,
2013-09-18 09:46:00,50.6,27.5,30.31,WNW,299,1.1,2.7,41,0.00,,,0.00,WUHU216HW,2013-09-18 13:46:00,
2013-09-18 09:51:00,50.9,27.8,30.31,NE,45,0.4,2.7,41,0.00,,,0.00,WUHU216HW,2013-09-18 13:51:00,
2013-09-18 09:56:00,51.5,28.9,30.31,North,0,2.5,3.8,42,0.00,,,0.00,WUHU216HW,2013-09-18 13:56:00,
2013-09-18 10:01:00,52.2,30.1,30.31,SSW,203,1.9,3.8,43,0.00,,,0.00,WUHU216HW,2013-09-18 14:01:00,
2013-09-18 10:06:00,52.9,31.3,30.31,SW,225,0.7,3.1,44,0.00,,,0.00,WUHU216HW,2013-09-18 14:06:00,
2013-09-18 10:11:00,53.6,32.5,30.31,NNW,334,1.1,3.1,45,0.00,,,0.00,WUHU216HW,2013-09-18 14:11:00,
2013-09-18 10:17:00,54.0,33.4,30.30,SW,225,0.4,1.3,46,0.00,,,0.00,WUHU216HW,2013-09-18 14:17:00,
2013-09-18 10:22:00,54.4,34.3,30.31,West,270,2.2,3.4,47,0.00,,,0.00,WUHU216HW,2013-09-18 14:22:00,
2013-09-18 10:27:00,55.1,35.4,30.30,ENE,68,0.4,3.4,48,0.00,,,0.00,WUHU216HW,2013-09-18 14:27:00,
2013-09-18 10:32:00,55.8,38.1,30.30,SW,225,3.1,4.7,51,0.00,,,0.00,WUHU216HW,2013-09-18 14:32:00,
2013-09-18 10:37:00,56.7,40.8,30.30,WSW,248,3.4,4.7,55,0.00,,,0.00,WUHU216HW,2013-09-18 14:37:00,
2013-09-18 10:42:00,57.2,40.8,30.30,WNW,293,2.3,4.7,54,0.00,,,0.00,WUHU216HW,2013-09-18 14:42:00,
2013-09-18 10:47:00,57.6,41.2,30.30,WNW,293,2.0,4.0,54,0.00,,,0.00,WUHU216HW,2013-09-18 14:47:00,
2013-09-18 10:52:00,58.1,42.1,30.30,WSW,254,1.4,4.9,55,0.00,,,0.00,WUHU216HW,2013-09-18 14:52:00,
2013-09-18 10:57:00,58.5,42.5,30.30,WNW,290,2.0,4.9,55,0.00,,,0.00,WUHU216HW,2013-09-18 14:57:00,
2013-09-18 11:02:00,59.0,43.4,30.30,NNW,332,2.2,4.0,56,0.00,,,0.00,WUHU216HW,2013-09-18 15:02:00,
2013-09-18 11:07:00,59.8,45.5,30.30,NW,315,2.6,4.0,59,0.00,,,0.00,WUHU216HW,2013-09-18 15:07:00,
2013-09-18 11:12:00,59.8,45.5,30.29,North,0,1.8,3.8,59,0.00,,,0.00,WUHU216HW,2013-09-18 15:12:00,
2013-09-18 11:17:00,59.8,45.5,30.29,North,0,1.8,1.8,59,0.00,,,0.00,WUHU216HW,2013-09-18 15:17:00,
2013-09-18 13:04:00,71.8,49.1,30.04,ESE,113,0.4,0.4,45,0.00,,,0.00,WUHU216HW,2013-09-18 17:04:00,
2013-09-18 13:09:00,71.3,48.6,30.04,WSW,248,2.7,2.7,45,0.00,,,0.00,WUHU216HW,2013-09-18 17:09:00,
2013-09-18 13:14:00,69.5,46.4,30.04,WSW,243,2.8,4.5,44,0.00,,,0.00,WUHU216HW,2013-09-18 17:14:00,
2013-09-18 13:19:00,68.9,46.4,30.03,WSW,248,3.4,4.5,45,0.00,,,0.00,WUHU216HW,2013-09-18 17:19:00,
2013-09-18 13:24:00,68.8,46.3,30.03,NNE,23,2.0,3.6,45,0.00,,,0.00,WUHU216HW,2013-09-18 17:24:00,
2013-09-18 13:29:00,68.6,46.7,30.03,WSW,248,5.1,5.1,46,0.00,,,0.00,WUHU216HW,2013-09-18 17:29:00,
2013-09-18 13:34:00,68.6,46.7,30.03,West,270,2.8,5.1,46,0.00,,,0.00,WUHU216HW,2013-09-18 17:34:00,
2013-09-18 13:39:00,68.6,47.3,30.03,NNE,15,1.1,3.6,47,0.00,,,0.00,WUHU216HW,2013-09-18 17:39:00,
2013-09-18 13:44:00,68.6,46.2,30.02,WSW,248,2.0,4.0,45,0.00,,,0.00,WUHU216HW,2013-09-18 17:44:00,
2013-09-18 13:49:00,68.8,46.9,30.02,SE,135,0.6,4.0,46,0.00,,,0.00,WUHU216HW,2013-09-18 17:49:00,
2013-09-18 13:54:00,68.6,46.2,30.02,SW,215,3.9,6.0,45,0.00,,,0.00,WUHU216HW,2013-09-18 17:54:00,
2013-09-18 13:59:00,68.6,47.3,30.01,ESE,113,1.1,6.0,47,0.00,,,0.00,WUHU216HW,2013-09-18 17:59:00,
2013-09-18 14:04:00,68.6,47.3,30.01,South,180,2.0,2.2,47,0.00,,,0.00,WUHU216HW,2013-09-18 18:04:00,
2013-09-18 14:09:00,68.6,47.3,30.01,WNW,293,2.2,4.0,47,0.00,,,0.00,WUHU216HW,2013-09-18 18:09:00,
2013-09-18 14:14:00,68.6,46.7,30.01,West,270,2.0,4.0,46,0.00,,,0.00,WUHU216HW,2013-09-18 18:14:00,
2013-09-18 14:19:00,68.8,46.9,30.01,WNW,303,1.9,4.7,46,0.00,,,0.00,WUHU216HW,2013-09-18 18:19:00,
2013-09-18 14:25:00,68.8,46.3,30.01,WSW,248,4.7,4.7,45,0.00,,,0.00,WUHU216HW,2013-09-18 18:25:00,
2013-09-18 14:30:00,68.8,46.3,30.00,WNW,282,2.3,4.7,45,0.00,,,0.00,WUHU216HW,2013-09-18 18:30:00,
2013-09-18 14:35:00,69.1,45.4,30.00,WSW,248,9.2,9.2,43,0.00,,,0.00,WUHU216HW,2013-09-18 18:35:00,
2013-09-18 14:40:00,69.5,45.8,30.00,WNW,293,3.8,9.2,43,0.00,,,0.00,WUHU216HW,2013-09-18 18:40:00,
2013-09-18 14:45:00,69.7,46.0,30.00,WNW,300,2.7,6.0,43,0.00,,,0.00,WUHU216HW,2013-09-18 18:45:00,
2013-09-18 14:50:00,69.8,46.7,29.99,WSW,248,2.5,5.4,44,0.00,,,0.00,WUHU216HW,2013-09-18 18:50:00,
2013-09-18 14:55:00,69.8,46.7,29.99,West,270,2.5,5.4,44,0.00,,,0.00,WUHU216HW,2013-09-18 18:55:00,
2013-09-18 15:00:00,69.8,47.2,29.99,East,82,0.4,2.5,45,0.00,,,0.00,WUHU216HW,2013-09-18 19:00:00,
2013-09-18 15:05:00,69.8,47.8,29.99,SSW,206,1.9,2.2,46,0.00,,,0.00,WUHU216HW,2013-09-18 19:05:00,
2013-09-18 15:11:00,69.8,48.4,29.99,WNW,293,3.8,3.8,47,0.00,,,0.00,WUHU216HW,2013-09-18 19:11:00,
2013-09-18 15:16:00,69.8,49.0,29.98,WSW,248,2.0,3.8,48,0.00,,,0.00,WUHU216HW,2013-09-18 19:16:00,
2013-09-18 15:21:00,70.2,49.3,29.98,NW,315,4.9,4.9,48,0.00,,,0.00,WUHU216HW,2013-09-18 19:21:00,
2013-09-18 15:26:00,70.7,49.2,29.98,West,268,2.3,4.9,47,0.00,,,0.00,WUHU216HW,2013-09-18 19:26:00,
2013-09-18 15:31:00,71.1,49.6,29.98,SSW,203,3.1,3.4,47,0.00,,,0.00,WUHU216HW,2013-09-18 19:31:00,
2013-09-18 15:36:00,71.3,49.8,29.98,South,187,1.5,3.4,47,0.00,,,0.00,WUHU216HW,2013-09-18 19:36:00,
2013-09-18 15:41:00,71.1,50.1,29.98,WSW,248,1.1,1.6,48,0.00,,,0.00,WUHU216HW,2013-09-18 19:41:00,
2013-09-18 15:46:00,71.3,50.3,29.98,West,270,4.0,4.0,48,0.00,,,0.00,WUHU216HW,2013-09-18 19:46:00,
2013-09-18 15:51:00,71.5,51.1,29.97,WSW,248,0.4,4.0,49,0.00,,,0.00,WUHU216HW,2013-09-18 19:51:00,
2013-09-18 15:56:00,71.6,51.2,29.97,NW,316,3.5,3.6,49,0.00,,,0.00,WUHU216HW,2013-09-18 19:56:00,
2013-09-18 16:01:00,72.2,51.2,29.97,SSE,158,1.1,3.8,48,0.00,,,0.00,WUHU216HW,2013-09-18 20:01:00,
2013-09-18 16:06:00,72.4,51.3,29.97,SW,231,1.5,3.8,48,0.00,,,0.00,WUHU216HW,2013-09-18 20:06:00,
2013-09-18 16:11:00,72.5,50.9,29.97,West,270,0.9,4.9,47,0.00,,,0.00,WUHU216HW,2013-09-18 20:11:00,
2013-09-18 16:16:00,73.1,50.3,29.97,West,270,3.9,4.9,45,0.00,,,0.00,WUHU216HW,2013-09-18 20:16:00,
2013-09-18 16:21:00,73.8,52.1,29.97,SW,232,1.5,4.9,47,0.00,,,0.00,WUHU216HW,2013-09-18 20:21:00,
2013-09-18 16:26:00,73.8,52.1,29.97,SE,135,0.4,3.6,47,0.00,,,0.00,WUHU216HW,2013-09-18 20:26:00,
2013-09-18 16:31:00,73.8,49.7,29.96,West,270,1.8,4.0,43,0.00,,,0.00,WUHU216HW,2013-09-18 20:31:00,
2013-09-18 16:36:00,74.3,49.5,29.97,West,265,3.3,4.7,42,0.00,,,0.00,WUHU216HW,2013-09-18 20:36:00,
2013-09-18 16:41:00,74.5,50.3,29.96,SW,226,3.0,4.7,43,0.00,,,0.00,WUHU216HW,2013-09-18 20:41:00,
2013-09-18 16:46:00,74.5,50.9,29.96,East,90,2.2,3.4,44,0.00,,,0.00,WUHU216HW,2013-09-18 20:46:00,
2013-09-18 16:51:00,74.3,50.8,29.96,WNW,293,3.6,3.6,44,0.00,,,0.00,WUHU216HW,2013-09-18 20:51:00,
2013-09-18 16:56:00,74.3,50.1,29.96,West,270,4.7,4.7,43,0.00,,,0.00,WUHU216HW,2013-09-18 20:56:00,
2013-09-18 17:01:00,74.2,48.8,29.96,WSW,258,2.6,4.7,41,0.00,,,0.00,WUHU216HW,2013-09-18 21:01:00,
2013-09-18 17:06:00,74.2,50.7,29.96,SW,225,2.5,4.7,44,0.00,,,0.00,WUHU216HW,2013-09-18 21:06:00,
2013-09-18 17:11:00,73.6,50.7,29.96,SSE,158,1.1,2.5,45,0.00,,,0.00,WUHU216HW,2013-09-18 21:11:00,
2013-09-18 17:16:00,73.4,51.1,29.96,WNW,282,2.3,3.6,46,0.00,,,0.00,WUHU216HW,2013-09-18 21:16:00,
2013-09-18 17:21:00,73.3,51.0,29.96,SE,135,0.7,3.6,46,0.00,,,0.00,WUHU216HW,2013-09-18 21:21:00,
2013-09-18 17:26:00,72.9,50.7,29.96,NW,315,0.0,3.8,46,0.00,,,0.00,WUHU216HW,2013-09-18 21:26:00,
2013-09-18 17:31:00,72.9,51.2,29.95,SE,135,0.0,3.8,47,0.00,,,0.00,WUHU216HW,2013-09-18 21:31:00,
2013-09-18 17:36:00,72.4,50.8,29.95,WSW,248,2.9,2.9,47,0.00,,,0.00,WUHU216HW,2013-09-18 21:36:00,
2013-09-18 17:41:00,72.0,51.0,29.96,West,270,0.7,2.9,48,0.00,,,0.00,WUHU216HW,2013-09-18 21:41:00,
2013-09-18 17:46:00,71.6,50.6,29.96,WSW,245,1.0,2.9,48,0.00,,,0.00,WUHU216HW,2013-09-18 21:46:00,
2013-09-18 17:51:00,71.5,51.1,29.96,NW,315,0.7,2.7,49,0.00,,,0.00,WUHU216HW,2013-09-18 21:51:00,
2013-09-18 17:56:00,71.3,50.9,29.96,WSW,248,0.9,1.1,49,0.00,,,0.00,WUHU216HW,2013-09-18 21:56:00,
2013-09-18 18:01:00,70.9,50.5,29.95,ESE,113,0.4,1.1,49,0.00,,,0.00,WUHU216HW,2013-09-18 22:01:00,
2013-09-18 18:06:00,70.2,50.4,29.96,ESE,113,0.2,1.1,49,0.00,,,0.00,WUHU216HW,2013-09-18 22:06:00,
2013-09-18 18:11:00,69.8,49.5,29.96,ESE,113,0.0,0.4,49,0.00,,,0.00,WUHU216HW,2013-09-18 22:11:00,
2013-09-18 18:16:00,69.5,49.8,29.95,ESE,113,0.0,0.0,49,0.00,,,0.00,WUHU216HW,2013-09-18 22:16:00,
2013-09-18 18:21:00,69.1,49.4,29.95,West,270,0.0,0.9,49,0.00,,,0.00,WUHU216HW,2013-09-18 22:21:00,
2013-09-18 18:26:00,68.8,49.1,29.96,East,90,0.4,0.9,49,0.00,,,0.00,WUHU216HW,2013-09-18 22:26:00,
2013-09-18 18:31:00,68.4,49.3,29.95,East,90,0.0,0.4,50,0.00,,,0.00,WUHU216HW,2013-09-18 22:31:00,
2013-09-18 18:36:00,68.2,49.1,29.95,East,90,0.0,0.0,50,0.00,,,0.00,WUHU216HW,2013-09-18 22:36:00,
2013-09-18 18:41:00,67.9,49.3,29.95,West,270,0.4,0.4,51,0.00,,,0.00,WUHU216HW,2013-09-18 22:41:00,
2013-09-18 18:46:00,67.5,49.0,29.95,SSW,203,0.0,0.4,51,0.00,,,0.00,WUHU216HW,2013-09-18 22:46:00,
2013-09-18 18:51:00,67.3,49.3,29.95,SSW,203,0.0,0.2,52,0.00,,,0.00,WUHU216HW,2013-09-18 22:51:00,
2013-09-18 18:56:00,66.6,49.1,29.95,SSE,158,0.0,0.0,53,0.00,,,0.00,WUHU216HW,2013-09-18 22:56:00,
2013-09-18 19:01:00,66.2,48.7,29.95,SSE,158,0.0,0.0,53,0.00,,,0.00,WUHU216HW,2013-09-18 23:01:00,
2013-09-18 19:06:00,65.9,49.0,29.95,SSE,158,0.0,0.0,54,0.00,,,0.00,WUHU216HW,2013-09-18 23:06:00,
2013-09-18 19:11:00,65.7,48.8,29.96,SSE,158,0.0,0.0,54,0.00,,,0.00,WUHU216HW,2013-09-18 23:11:00,
2013-09-18 19:17:00,65.2,48.8,29.95,SSE,158,0.0,0.0,55,0.00,,,0.00,WUHU216HW,2013-09-18 23:17:00,
2013-09-18 19:22:00,64.8,48.4,29.96,SSE,158,0.0,0.0,55,0.00,,,0.00,WUHU216HW,2013-09-18 23:22:00,
2013-09-18 19:27:00,64.4,48.5,29.96,SSE,158,0.0,0.0,56,0.00,,,0.00,WUHU216HW,2013-09-18 23:27:00,
2013-09-18 19:32:00,64.1,48.2,29.96,WSW,248,0.0,0.0,56,0.00,,,0.00,WUHU216HW,2013-09-18 23:32:00,
2013-09-18 19:37:00,63.5,48.1,29.96,West,270,0.0,0.0,57,0.00,,,0.00,WUHU216HW,2013-09-18 23:37:00,
2013-09-18 19:42:00,63.0,47.6,29.96,West,270,0.0,0.0,57,0.00,,,0.00,WUHU216HW,2013-09-18 23:42:00,
2013-09-18 19:47:00,62.8,47.9,29.96,West,270,0.0,0.0,58,0.00,,,0.00,WUHU216HW,2013-09-18 23:47:00,
2013-09-18 19:52:00,62.3,47.4,29.96,WNW,293,0.7,0.7,58,0.00,,,0.00,WUHU216HW,2013-09-18 23:52:00,
2013-09-18 19:57:00,62.1,47.2,29.96,WNW,293,0.0,0.7,58,0.00,,,0.00,WUHU216HW,2013-09-18 23:57:00,
2013-09-18 20:02:00,61.7,47.3,29.96,WNW,293,0.0,0.0,59,0.00,,,0.00,WUHU216HW,2013-09-19 00:02:00,
2013-09-18 20:07:00,61.6,47.2,29.96,WNW,293,0.0,0.0,59,0.00,,,0.00,WUHU216HW,2013-09-19 00:07:00,
2013-09-18 20:12:00,61.2,46.8,29.96,WNW,293,0.0,0.0,59,0.00,,,0.00,WUHU216HW,2013-09-19 00:12:00,
2013-09-18 20:17:00,60.8,46.9,29.96,WNW,293,0.0,0.0,60,0.00,,,0.00,WUHU216HW,2013-09-19 00:17:00,
2013-09-18 20:22:00,60.5,46.6,29.96,WNW,293,0.0,0.0,60,0.00,,,0.00,WUHU216HW,2013-09-19 00:22:00,
2013-09-18 20:27:00,60.1,46.2,29.96,WNW,293,0.0,0.0,60,0.00,,,0.00,WUHU216HW,2013-09-19 00:27:00,
2013-09-18 20:32:00,59.8,45.9,29.96,NW,315,0.0,0.0,60,0.00,,,0.00,WUHU216HW,2013-09-19 00:32:00,
2013-09-18 20:37:00,59.4,45.6,29.96,NW,315,0.0,0.0,60,0.00,,,0.00,WUHU216HW,2013-09-19 00:37:00,
2013-09-18 20:42:00,59.2,45.4,29.96,NW,315,0.0,0.0,60,0.00,,,0.00,WUHU216HW,2013-09-19 00:42:00,
2013-09-18 20:47:00,58.9,45.1,29.95,SE,135,0.2,0.2,60,0.00,,,0.00,WUHU216HW,2013-09-19 00:47:00,
2013-09-18 20:52:00,58.7,44.9,29.96,SE,135,0.0,0.4,60,0.00,,,0.00,WUHU216HW,2013-09-19 00:52:00,
2013-09-18 20:57:00,58.7,44.9,29.96,NW,315,0.0,0.4,60,0.00,,,0.00,WUHU216HW,2013-09-19 00:57:00,
2013-09-18 21:02:00,58.3,44.5,29.95,NNE,23,0.0,0.2,60,0.00,,,0.00,WUHU216HW,2013-09-19 01:02:00,
2013-09-18 21:07:00,58.1,44.3,29.96,NNW,338,0.2,0.2,60,0.00,,,0.00,WUHU216HW,2013-09-19 01:07:00,
2013-09-18 21:12:00,58.0,44.2,29.95,WNW,293,0.4,0.9,60,0.00,,,0.00,WUHU216HW,2013-09-19 01:12:00,
2013-09-18 21:17:00,57.6,43.9,29.95,WNW,293,0.0,0.9,60,0.00,,,0.00,WUHU216HW,2013-09-19 01:17:00,
2013-09-18 21:22:00,57.4,43.7,29.95,WNW,293,0.0,0.4,60,0.00,,,0.00,WUHU216HW,2013-09-19 01:22:00,
2013-09-18 21:27:00,57.2,43.5,29.96,WNW,293,0.0,0.0,60,0.00,,,0.00,WUHU216HW,2013-09-19 01:27:00,
2013-09-18 21:32:00,57.2,43.5,29.96,WNW,293,0.0,0.0,60,0.00,,,0.00,WUHU216HW,2013-09-19 01:32:00,
2013-09-18 21:37:00,56.9,42.8,29.96,WNW,293,0.0,0.0,59,0.00,,,0.00,WUHU216HW,2013-09-19 01:37:00,
2013-09-18 21:42:00,56.7,42.6,29.96,WNW,293,0.0,0.0,59,0.00,,,0.00,WUHU216HW,2013-09-19 01:42:00,
2013-09-18 21:47:00,56.5,42.4,29.96,WNW,293,0.0,0.7,59,0.00,,,0.00,WUHU216HW,2013-09-19 01:47:00,
2013-09-18 21:52:00,56.3,42.2,29.96,SE,135,0.0,0.7,59,0.00,,,0.00,WUHU216HW,2013-09-19 01:52:00,
2013-09-18 21:57:00,56.2,42.1,29.96,WNW,293,0.4,0.7,59,0.00,,,0.00,WUHU216HW,2013-09-19 01:57:00,
2013-09-18 22:02:00,56.0,41.9,29.96,NW,315,0.4,0.7,59,0.00,,,0.00,WUHU216HW,2013-09-19 02:02:00,
2013-09-18 22:07:00,55.8,41.7,29.96,WNW,293,0.4,0.7,59,0.00,,,0.00,WUHU216HW,2013-09-19 02:07:00,
2013-09-18 22:12:00,55.6,41.6,29.96,WNW,293,0.0,0.7,59,0.00,,,0.00,WUHU216HW,2013-09-19 02:12:00,
2013-09-18 22:17:00,55.4,41.4,29.96,NE,45,0.0,0.0,59,0.00,,,0.00,WUHU216HW,2013-09-19 02:17:00,
2013-09-18 22:22:00,55.3,41.3,29.96,NE,45,0.0,0.0,59,0.00,,,0.00,WUHU216HW,2013-09-19 02:22:00,
2013-09-18 22:27:00,55.1,41.1,29.96,North,0,0.0,0.2,59,0.00,,,0.00,WUHU216HW,2013-09-19 02:27:00,
2013-09-18 22:32:00,54.9,40.5,29.96,NNW,338,0.0,0.2,58,0.00,,,0.00,WUHU216HW,2013-09-19 02:32:00,
2013-09-18 22:37:00,54.7,40.3,29.96,North,0,0.0,0.0,58,0.00,,,0.00,WUHU216HW,2013-09-19 02:37:00,
2013-09-18 22:42:00,54.4,40.0,29.96,East,90,1.1,1.1,58,0.00,,,0.00,WUHU216HW,2013-09-19 02:42:00,
2013-09-18 22:47:00,54.4,40.0,29.96,West,270,0.4,1.1,58,0.00,,,0.00,WUHU216HW,2013-09-19 02:47:00,
2013-09-18 22:52:00,54.2,39.4,29.96,SE,135,0.0,0.4,57,0.00,,,0.00,WUHU216HW,2013-09-19 02:52:00,
2013-09-18 22:57:00,54.2,39.4,29.96,SE,135,0.0,0.2,57,0.00,,,0.00,WUHU216HW,2013-09-19 02:57:00,
2013-09-18 23:03:00,54.0,39.2,29.96,SE,135,0.0,0.0,57,0.00,,,0.00,WUHU216HW,2013-09-19 03:03:00,
2013-09-18 23:08:00,54.0,39.2,29.96,SE,135,0.0,0.0,57,0.00,,,0.00,WUHU216HW,2013-09-19 03:08:00,
2013-09-18 23:13:00,53.8,39.0,29.96,NW,315,0.0,0.0,57,0.00,,,0.00,WUHU216HW,2013-09-19 03:13:00,
2013-09-18 23:18:00,53.8,38.6,29.96,WNW,293,0.0,0.4,56,0.00,,,0.00,WUHU216HW,2013-09-19 03:18:00,
2013-09-18 23:23:00,53.6,38.4,29.96,WNW,293,0.0,0.4,56,0.00,,,0.00,WUHU216HW,2013-09-19 03:23:00,
2013-09-18 23:28:00,53.6,38.4,29.96,WNW,293,0.0,0.0,56,0.00,,,0.00,WUHU216HW,2013-09-19 03:28:00,
2013-09-18 23:33:00,53.6,38.4,29.96,NW,315,0.0,0.0,56,0.00,,,0.00,WUHU216HW,2013-09-19 03:33:00,
2013-09-18 23:38:00,53.5,38.3,29.95,NW,315,0.0,0.0,56,0.00,,,0.00,WUHU216HW,2013-09-19 03:38:00,
2013-09-18 23:43:00,53.5,38.3,29.95,NW,315,0.0,0.0,56,0.00,,,0.00,WUHU216HW,2013-09-19 03:43:00,
2013-09-18 23:48:00,53.3,38.1,29.95,NW,315,0.0,0.0,56,0.00,,,0.00,WUHU216HW,2013-09-19 03:48:00,
2013-09-18 23:53:00,53.3,37.6,29.95,NW,315,0.0,0.0,55,0.00,,,0.00,WUHU216HW,2013-09-19 03:53:00,
2013-09-18 23:58:00,53.1,37.5,29.95,NW,315,0.0,0.0,55,0.00,,,0.00,WUHU216HW,2013-09-19 03:58:00,